Orbital Elements at Epoch 2459000.5 (2020-May-31.0) TDB
Reference: JPL 21 (heliocentric ecliptic J2000)
Element | Value | Uncertainty (1-sigma) | Units |
e | .1547424868934453 | 4.0396e-08 | |
a | 2.258139473176982 | 8.2641e-09 | au |
q | 1.908709355345322 | 9.1286e-08 | au |
i | 6.325068212994545 | 4.6119e-06 | deg |
node | 57.28167938663037 | 4.1956e-05 | deg |
peri | 260.8347763908753 | 4.4693e-05 | deg |
M | 88.94655259935155 | 1.487e-05 | deg |
tp | 2458694.267563271889 (2019-Jul-29.76756327) | 5.1305e-05 | TDB |
period | 1239.437325004587 3.39 | 6.8039e-06 1.863e-08 | d yr |
n | .2904543801750262 | 1.5945e-09 | deg/d |
Q | 2.607569591008643 | 9.5429e-09 | au |
|
| | Orbit Determination Parameters
Additional Information
|